Location: Ch�ze
(42.9000°N, 0.0333°W)
Time: 00:08:15
(UTC+00:00)

H-2A R/B - Pass Details

Date: 24 January 2021
Orbit: 734 x 836 km, 98.2° (Epoch: 24 February)

Event Time Altitude Azimuth Distance (km) Brightness Sun altitude
Rises 17:45:20 0° 133° (SE) 3,185 4.9 -8.1°
Reaches altitude 10° 17:47:54 10° 121° (ESE) 2,278 4.1 -8.5°
Maximum altitude 17:52:02 27° 65° (ENE) 1,461 2.9 -9.2°
Drops below altitude 10° 17:56:16 10° 10° (N) 2,342 4.3 -10.0°
Sets 17:58:55 0° 358° (N) 3,293 5.1 -10.4°
